This demonstration page uses our WeatherBlox Daily Observations layout. Learn more.

Left ArrowRight Arrow

34.16533, -84.80231

Hourly Observations for April 10, 2016

Temp ( °F °C ) Dew Point ( °F °C ) Humidity (%) Winds ( mph kmh ) Pressure ( in mb ) Visibility ( mi km ) Precip ( " mm )
12:53 am 00:53 Clear 35 1.7 27 -2.8 72 72 Calm 30.24 1024 10 16 0.00 0.00
1:53 am 01:53 Clear 34 1.1 27 -2.8 76 76 Calm 30.24 1024 10 16 0.00 0.00
2:53 am 02:53 Clear 34 1.1 29 -1.7 82 82 Calm 30.23 1024 10 16 0.00 0.00
3:53 am 03:53 Clear 33 0.6 28 -2.2 82 82 Calm 30.22 1023 10 16 0.00 0.00
4:53 am 04:53 Clear 31 -0.6 29 -1.7 92 92 Calm 30.23 1024 10 16 0.00 0.00
5:53 am 05:53 Clear 30 -1.1 28 -2.2 92 92 Calm 30.25 1024 10 16 0.00 0.00
6:53 am 06:53 Clear 31 -0.6 29 -1.7 92 92 Calm 30.27 1025 10 16 0.00 0.00
7:53 am 07:53 Sunny 36 2.2 31 -0.6 82 82 E 3 6 30.29 1026 10 16 0.00 0.00
8:53 am 08:53 Sunny 44 6.7 28 -2.2 53 53 E 6 9 30.31 1027 10 16 0.00 0.00
9:53 am 09:53 Sunny 47 8.3 27 -2.8 46 46 ESE 6 9 30.32 1027 10 16 0.00 0.00
10:53 am 10:53 Sunny 49 9.4 25 -3.9 39 39 E 10 17 30.33 1027 10 16 0.00 0.00
11:53 am 11:53 Partly Cloudy 52 11.1 25 -3.9 35 35 SE 12 19 30.34 1027 10 16 0.00 0.00
12:53 pm 12:53 Cloudy 52 11.1 24 -4.4 34 34 E 10 17 30.32 1027 10 16 0.00 0.00
1:53 pm 13:53 Mostly Cloudy 54 12.2 26 -3.3 34 34 SSE 10 17 30.31 1027 10 16 0.00 0.00
2:53 pm 14:53 Mostly Cloudy 54 12.2 28 -2.2 37 37 SSE 9 15 30.30 1026 10 16 0.00 0.00
3:53 pm 15:53 Mostly Sunny 56 13.3 28 -2.2 34 34 SE 9 15 30.27 1025 10 16 0.00 0.00
4:53 pm 16:53 Mostly Sunny 60 15.6 30 -1.1 32 32 SSE 10 17 30.24 1024 10 16 0.00 0.00
5:53 pm 17:53 Sunny 59 15 31 -0.6 35 35 SE 9 15 30.23 1024 10 16 0.00 0.00
6:53 pm 18:53 Partly Cloudy 59 15 33 0.6 38 38 ESE 6 9 30.22 1024 10 16 0.00 0.00
7:53 pm 19:53 Sunny 57 13.9 33 0.6 41 41 Calm 30.22 1023 10 16 0.00 0.00
8:53 pm 20:53 Partly Cloudy 49 9.4 39 3.9 69 69 ESE 3 6 30.23 1024 10 16 0.00 0.00
9:53 pm 21:53 Clear 46 7.8 38 3.3 73 73 Calm 30.24 1024 10 16 0.00 0.00
10:53 pm 22:53 Clear 48 8.9 36 2.2 63 63 E 5 7 30.24 1024 10 16 0.00 0.00
11:53 pm 23:53 Clear 50 10 35 1.7 57 57 E 3 6 30.22 1024 10 16 0.00 0.00

Powered by AerisWeather